Location: ????????
(41.2031°N, 22.5756°E)
Time: 14:31:29
(UTC+00:00)

Lacrosse 4 Rocket - Pass Details

Date: 01 December 2020
Orbit: 537 x 620 km, 68.0° (Epoch: 20 January)

Event Time Altitude Azimuth Distance (km) Brightness Sun altitude
Rises 17:43:23 0° 218° (SW) 2,679 5.4 -29.8°
Reaches altitude 10° 17:45:35 10° 223° (SW) 1,797 4.5 -30.2°
Enters shadow 17:47:09 22° 232° (SW) 1,206 3.5 -30.5°
